Lid_Strength_Index
3 3 3 3 3 3 3 2 2 1 1 1 1 1 1 1 1 2 4 2 2 -0 0 4 5 6 8 9 9 10 11 12 11 12 10 9 10 9 9 9 9 8 8 7 6
3 3 3 3 3 2 3 2 2 1 1 1 1 1 1 1 2 4 -1 -2 -0 -1 4 5 5 6 8 9 9 11 13 12 11 11 11 10 10 10 10 10 9 9 9 8 5
3 3 3 3 3 3 2 2 1 1 1 1 1 1 1 1 3 4 -3 -3 -0 1 4 4 4 6 8 8 10 11 12 11 11 10 10 10 10 9 10 10 9 9 8 8 7
3 3 3 3 3 3 2 2 1 1 1 0 1 1 1 2 9 3 -3 -2 -2 3 5 5 6 7 8 9 9 11 10 10 9 9 9 10 9 9 9 9 8 8 8 7 6
3 3 3 3 3 2 2 2 1 2 2 1 1 1 2 6 6 2 -3 -2 0 4 6 7 8 8 9 9 9 10 10 9 9 9 9 9 9 8 8 8 7 7 7 7 6
4 3 4 3 3 3 2 2 2 2 2 2 1 1 3 7 4 0 1 1 3 5 7 7 7 8 9 9 9 9 9 9 9 9 9 10 9 9 8 7 7 7 6 6 6
4 4 3 3 3 3 2 2 3 2 2 2 1 2 4 6 3 3 3 4 4 5 7 7 7 8 9 9 9 9 10 10 10 9 10 10 11 10 9 7 7 7 6 6 6
4 4 3 3 3 3 3 2 2 2 2 1 1 2 6 3 2 4 4 4 5 5 6 6 7 8 9 9 10 10 10 11 10 9 9 9 11 9 8 8 7 7 7 6 5
4 4 4 3 3 3 3 3 3 2 1 1 2 3 7 2 4 4 4 5 6 6 6 7 7 9 9 10 11 11 12 12 11 9 9 9 10 8 7 8 7 7 6 6 6
4 4 4 4 3 3 3 3 2 2 2 2 3 7 5 7 5 4 4 5 6 6 7 8 9 9 9 10 13 13 12 12 12 10 9 10 10 8 8 7 7 6 6 6 6
4 4 4 4 3 4 4 4 5 6 5 7 7 7 7 6 5 5 5 5 6 6 9 8 9 10 10 10 11 11 11 12 11 9 10 10 10 9 8 6 6 6 6 6 4
4 4 4 4 3 4 5 5 6 6 8 6 6 6 5 6 7 6 5 7 7 9 9 9 10 9 9 10 10 10 11 11 10 9 9 10 10 9 7 7 6 6 5 5 4
4 4 4 4 4 4 4 5 4 5 8 7 6 7 7 6 8 7 5 7 8 8 9 10 9 8 9 9 10 10 11 11 11 10 10 10 11 9 7 6 6 5 5 4 4
4 4 4 4 4 4 5 4 5 4 9 9 9 8 7 7 8 5 5 6 7 8 9 9 8 8 9 10 9 11 9 10 10 11 13 10 15 11 8 7 7 6 5 5 4
4 4 4 4 4 5 4 4 4 3 14 8 8 6 7 8 8 7 5 6 8 8 8 10 9 9 9 9 9 10 9 10 10 11 12 12 13 11 9 9 8 6 5 5 4
5 4 4 5 4 4 4 4 3 9 15 10 8 8 8 8 8 7 6 5 6 8 9 9 8 8 8 8 9 8 9 11 10 11 14 12 12 11 9 8 7 6 5 4 4
5 5 4 5 5 4 4 3 9 13 9 10 9 8 8 9 8 7 8 8 9 11 11 10 9 8 7 9 8 8 9 13 14 14 14 11 12 10 7 6 6 6 5 4 4
5 5 4 3 4 4 3 7 13 11 10 8 8 8 9 8 8 8 8 9 7 8 10 11 12 9 7 8 9 9 10 12 17 16 14 11 13 9 7 6 5 5 4 4 4
6 2 4 3 3 3 5 10 11 10 9 9 8 9 9 8 8 8 8 9 8 8 11 11 11 8 8 7 8 9 10 9 12 12 14 11 10 7 7 7 6 6 5 5 4
3 3 4 4 3 4 7 10 9 8 8 8 10 9 11 9 9 9 9 7 8 7 7 9 12 8 8 7 7 8 7 12 11 18 16 13 13 12 8 8 7 6 6 5 4
4 5 4 4 3 4 9 9 8 6 6 8 9 9 9 9 9 9 9 8 7 7 6 8 10 10 8 9 10 9 10 10 11 12 16 16 13 8 8 7 7 6 5 5 4
5 7 3 4 6 9 9 8 8 7 6 6 7 8 9 9 9 9 10 9 6 6 9 8 9 12 11 7 7 8 9 10 14 15 14 15 14 6 6 6 6 6 5 5 5
7 6 4 3 9 8 7 8 7 7 7 7 8 7 7 9 11 9 9 6 6 7 8 7 10 14 13 10 8 10 9 9 10 11 15 17 14 6 5 6 6 6 5 5 4
7 8 7 6 7 8 9 9 9 7 8 7 7 7 8 9 8 10 9 7 6 6 6 6 10 11 14 12 10 11 10 9 10 16 13 12 11 9 7 7 7 6 5 5 4
9 10 9 10 9 9 9 10 10 10 8 7 9 8 9 11 10 10 9 8 7 6 7 8 11 10 10 10 10 10 10 10 11 11 14 12 11 9 8 7 7 6 5 5 5
8 9 9 10 10 9 10 10 10 10 9 9 9 9 9 10 9 10 9 9 9 8 8 8 11 11 12 10 10 12 10 10 10 9 10 10 11 6 6 6 6 6 6 6 5
8 8 8 11 10 10 10 10 10 9 8 8 8 8 9 8 7 7 7 7 7 9 10 10 11 13 14 11 12 14 11 10 10 9 10 13 9 6 8 8 7 6 6 6 5